Regional Weather Roundup
Issued by NWS

Home | Current Version | Previous Version | Graphics & Text | Print | Product List | Glossary On
Versions: 1 2 3 4 5 6 7 8 9 10 11 12 13 14 15 16 17 18 19 20 21 22 23 24 25 26 27 28 29 30 31 32 33 34 35 36 37 38 39 40 41 42 43 44 45 46 47 48 49 50
000
ASUS43 KLMK 190702
RWRKY
KENTUCKY REGIONAL WEATHER ROUNDUP
NATIONAL WEATHER SERVICE LOUISVILLE KY
300 AM EDT SUN APR 19 2015

NOTE "FAIR" INDICATES FEW OR NO CLOUDS BELOW 12,000 FEET
WITH NO SIGNIFICANT WEATHER AND/OR OBSTRUCTIONS TO VISIBILITY.

KYZ001>023-026-027-061>063-070>075-190800-
WESTERN AND SOUTH CENTRAL KENTUCKY

CITY           SKY/WX    TMP DP  RH WIND       PRES   REMARKS
PADUCAH        LGT RAIN  64  62  93 SE5       29.76F
HENDERSON      CLOUDY    66  50  55 SE7       29.80F
OWENSBORO      LGT RAIN  69  52  54 CALM      29.80F
HOPKINSVILLE   CLOUDY    66  61  84 E6        29.78F
BOWLING GREEN  CLOUDY    67  59  75 E6        29.82F
GLASGOW        NOT AVBL
$$

KYZ024-025-028>034-038-045-046-053-190800-
NORTH CENTRAL KENTUCKY

CITY           SKY/WX    TMP DP  RH WIND       PRES   REMARKS
LOUISVILLE/SDF CLOUDY    69  46  43 E8        29.85F
LOUISVILLE/LOU CLOUDY    69  45  41 E9G17     29.85F
FORT KNOX      CLOUDY    66  48  52 NE6       29.83F
$$

KYZ035>037-039>044-047>052-055>060-089>105-190800-
NORTHEAST KENTUCKY

CITY           SKY/WX    TMP DP  RH WIND       PRES   REMARKS
LEXINGTON      LGT RAIN  67  46  47 E9        29.89F
COVINGTON      CLOUDY    65  44  46 E12       29.91F
FRANKFORT      CLOUDY    65  46  50 E6        29.87F
$$

KYZ054-064>069-076>088-106>120-190800-
SOUTHEAST KENTUCKY

CITY           SKY/WX    TMP DP  RH WIND       PRES   REMARKS
JACKSON        MOCLDY    67  44  43 SE5       29.91F
LONDON         CLOUDY    68  54  60 CALM      29.89F
SOMERSET       NOT AVBL
MIDDLESBORO    CLOUDY    64  60  89 CALM      29.91F
MONTICELLO     CLOUDY    67  62  84 SE5       29.90F
$$




USA.gov is the U.S. government's official web portal to all federal, state and local government web resources and services.